,,,PA_Meas_PMT16A,,PR_Meas_QMR101_102,,RH_Meas_QMH101,,SR_Meas_QMS101,,TA_Meas_QMH101,,GenWind,,GenWind,
date,time,status,PA,status,PR,status,RH,status,SR,status,TA,status,DirAvg,status,SpdAvg,
2014-01-11, 00:00:04,VALID,1011.43,VALID,0,VALID,104,VALID,0,VALID,23.2264,VALID,5,VALID,0,
2014-01-11, 00:01:04,VALID,1011.46,VALID,0,VALID,104,VALID,0,VALID,23.2069,VALID,5,VALID,0,
2014-01-11, 00:02:04,VALID,1011.43,VALID,0,VALID,104,VALID,0,VALID,23.2051,VALID,5,VALID,0,
2014-01-11, 00:03:04,VALID,1011.43,VALID,0,VALID,104,VALID,0,VALID,23.2069,VALID,5,VALID,0,
2014-01-11, 00:04:04,VALID,1011.4,VALID,0,VALID,104,VALID,0.112112,VALID,23.2051,VALID,5,VALID,0.50625,
2014-01-11, 00:05:04,VALID,1011.41,VALID,0,VALID,104,VALID,0,VALID,23.2069,VALID,5,VALID,0.0121094,
2014-01-11, 00:06:04,VALID,1011.39,VALID,0,VALID,104,VALID,0.112112,VALID,23.2069,VALID,5,VALID,0.103125,
2014-01-11, 00:07:04,VALID,1011.35,VALID,0,VALID,104,VALID,0,VALID,23.2069,VALID,5,VALID,0,
2014-01-11, 00:08:04,VALID,1011.35,VALID,0,VALID,104,VALID,0,VALID,23.2069,VALID,5,VALID,0,
2014-01-11, 00:09:04,VALID,1011.34,VALID,0,VALID,104,VALID,0.112112,VALID,23.1874,VALID,5,VALID,0,
2014-01-11, 00:10:04,VALID,1011.35,VALID,0,VALID,104,VALID,0.112112,VALID,23.1874,VALID,5,VALID,0,
2014-01-11, 00:11:04,VALID,1011.33,VALID,0,VALID,104,VALID,0.112112,VALID,23.1679,VALID,5,VALID,0,
2014-01-11, 00:12:04,VALID,1011.31,VALID,0,VALID,104,VALID,0.112112,VALID,23.1662,VALID,5,VALID,0.219531,
2014-01-11, 00:13:04,VALID,1011.29,VALID,0,VALID,104,VALID,0,VALID,23.1662,VALID,4,VALID,0.0945313,
2014-01-11, 00:14:04,VALID,1011.27,VALID,0,VALID,104,VALID,0,VALID,23.1679,VALID,5,VALID,0,
2014-01-11, 00:15:04,VALID,1011.25,VALID,0,VALID,104,VALID,0,VALID,23.1662,VALID,5,VALID,0.0152344,
2014-01-11, 00:16:04,VALID,1011.24,VALID,0,VALID,104,VALID,0,VALID,23.1679,VALID,5,VALID,0,
2014-01-11, 00:17:04,VALID,1011.24,VALID,0,VALID,104,VALID,0.112112,VALID,23.1467,VALID,5,VALID,0,
2014-01-11, 00:18:04,VALID,1011.24,VALID,0,VALID,104,VALID,0.112112,VALID,23.1679,VALID,5,VALID,0,
2014-01-11, 00:19:04,VALID,1011.24,VALID,0,VALID,104,VALID,0,VALID,23.1679,VALID,5,VALID,0,
2014-01-11, 00:20:04,VALID,1011.24,VALID,0,VALID,104,VALID,0,VALID,23.1272,VALID,5,VALID,0.103516,
2014-01-11, 00:21:04,VALID,1011.2,VALID,0,VALID,104,VALID,0,VALID,23.1467,VALID,5,VALID,0.203516,
2014-01-11, 00:22:04,VALID,1011.21,VALID,0,VALID,104,VALID,0,VALID,23.1679,VALID,4,VALID,0.325781,
2014-01-11, 00:23:04,VALID,1011.22,VALID,0,VALID,104,VALID,0,VALID,23.1485,VALID,5,VALID,0.364844,
2014-01-11, 00:24:04,VALID,1011.2,VALID,0,VALID,104,VALID,0,VALID,23.1679,VALID,5,VALID,0.135156,
2014-01-11, 00:25:04,VALID,1011.18,VALID,0,VALID,104,VALID,0,VALID,23.1467,VALID,5,VALID,0,
2014-01-11, 00:26:04,VALID,1011.16,VALID,0,VALID,104,VALID,0.112112,VALID,23.1467,VALID,5,VALID,0.36875,
2014-01-11, 00:27:04,VALID,1011.15,VALID,0,VALID,104,VALID,0,VALID,23.1679,VALID,5,VALID,0,
2014-01-11, 00:28:04,VALID,1011.14,VALID,0,VALID,104,VALID,0,VALID,23.1679,VALID,5,VALID,0.000390625,
2014-01-11, 00:29:04,VALID,1011.12,VALID,0,VALID,104,VALID,0.112112,VALID,23.1874,VALID,5,VALID,0.143359,
2014-01-11, 00:30:04,VALID,1011.11,VALID,0,VALID,104,VALID,0.112112,VALID,23.1874,VALID,4,VALID,0,
2014-01-11, 00:31:04,VALID,1011.08,VALID,0,VALID,104,VALID,0,VALID,23.1874,VALID,5,VALID,0.0617188,
2014-01-11, 00:32:04,VALID,1011.07,VALID,0,VALID,104,VALID,0,VALID,23.1874,VALID,4,VALID,0.243359,
2014-01-11, 00:33:04,VALID,1011.07,VALID,0,VALID,104,VALID,0,VALID,23.1874,VALID,5,VALID,0.154687,
2014-01-11, 00:34:04,VALID,1011.08,VALID,0,VALID,104,VALID,0,VALID,23.1874,VALID,5,VALID,0.0148437,
2014-01-11, 00:35:04,VALID,1011.1,VALID,0,VALID,104,VALID,0,VALID,23.1662,VALID,4,VALID,0.0347656,
2014-01-11, 00:36:04,VALID,1011.1,VALID,0,VALID,104,VALID,0,VALID,23.2069,VALID,4,VALID,0,
2014-01-11, 00:37:04,VALID,1011.09,VALID,0,VALID,104,VALID,0,VALID,23.1874,VALID,5,VALID,0.393359,
2014-01-11, 00:38:04,VALID,1011.04,VALID,0,VALID,104,VALID,0,VALID,23.2069,VALID,4,VALID,0.0460938,
2014-01-11, 00:39:04,VALID,1011.03,VALID,0,VALID,104,VALID,0,VALID,23.1874,VALID,5,VALID,0.00117188,
2014-01-11, 00:40:04,VALID,1011.03,VALID,0,VALID,104,VALID,0,VALID,23.1874,VALID,4,VALID,0,
2014-01-11, 00:41:04,VALID,1011.01,VALID,0,VALID,104,VALID,0,VALID,23.1874,VALID,5,VALID,0,
2014-01-11, 00:42:04,VALID,1010.97,VALID,0,VALID,104,VALID,0,VALID,23.1874,VALID,4,VALID,0,
2014-01-11, 00:43:04,VALID,1010.97,VALID,0,VALID,104,VALID,0,VALID,23.1874,VALID,4,VALID,0,
2014-01-11, 00:44:04,VALID,1010.97,VALID,0,VALID,104,VALID,0,VALID,23.1874,VALID,5,VALID,0.0550781,
2014-01-11, 00:45:04,VALID,1010.97,VALID,0,VALID,104,VALID,0,VALID,23.1874,VALID,5,VALID,0.270703,
2014-01-11, 00:46:04,VALID,1010.94,VALID,0,VALID,104,VALID,0,VALID,23.1679,VALID,5,VALID,0.268359,
2014-01-11, 00:47:04,VALID,1010.95,VALID,0,VALID,104,VALID,0,VALID,23.1874,VALID,5,VALID,0.324609,
2014-01-11, 00:48:04,VALID,1010.92,VALID,0,VALID,104,VALID,0,VALID,23.1679,VALID,5,VALID,0.330859,
2014-01-11, 00:49:04,VALID,1010.92,VALID,0,VALID,104,VALID,0,VALID,23.1679,VALID,5,VALID,0.162891,
2014-01-11, 00:50:04,VALID,1010.93,VALID,0,VALID,104,VALID,0,VALID,23.1874,VALID,5,VALID,0,
2014-01-11, 00:51:04,VALID,1010.93,VALID,0,VALID,104,VALID,0,VALID,23.1679,VALID,5,VALID,0.0382813,
2014-01-11, 00:52:04,VALID,1010.92,VALID,0,VALID,104,VALID,0,VALID,23.1662,VALID,5,VALID,0.432813,
2014-01-11, 00:53:04,VALID,1010.9,VALID,0,VALID,104,VALID,0,VALID,23.1679,VALID,5,VALID,0.510547,
2014-01-11, 00:54:04,VALID,1010.89,VALID,0,VALID,104,VALID,0,VALID,23.1679,VALID,5,VALID,0.317187,
2014-01-11, 00:55:04,VALID,1010.9,VALID,0,VALID,104,VALID,0,VALID,23.1679,VALID,5,VALID,0.194922,
2014-01-11, 00:56:04,VALID,1010.86,VALID,0,VALID,104,VALID,0,VALID,23.1679,VALID,5,VALID,0,
2014-01-11, 00:57:04,VALID,1010.85,VALID,0,VALID,104,VALID,0,VALID,23.1679,VALID,5,VALID,0.215625,
2014-01-11, 00:58:04,VALID,1010.86,VALID,0,VALID,104,VALID,0,VALID,23.1874,VALID,5,VALID,0.0355469,
2014-01-11, 00:59:04,VALID,1010.86,VALID,0,VALID,104,VALID,0,VALID,23.1679,VALID,5,VALID,0.203125,
2014-01-11, 01:00:04,VALID,1010.84,VALID,0,VALID,104,VALID,0,VALID,23.1679,VALID,5,VALID,0.332812,
2014-01-11, 01:01:04,VALID,1010.84,VALID,0,VALID,104,VALID,0,VALID,23.1679,VALID,352,VALID,0.655078,
2014-01-11, 01:02:04,VALID,1010.82,VALID,0,VALID,104,VALID,0,VALID,23.1662,VALID,352,VALID,0.0136719,
2014-01-11, 01:03:04,VALID,1010.8,VALID,0,VALID,104,VALID,0.112112,VALID,23.1662,VALID,352,VALID,0.108594,
2014-01-11, 01:04:04,VALID,1010.76,VALID,0,VALID,104,VALID,0,VALID,23.1662,VALID,352,VALID,0.231641,
2014-01-11, 01:05:04,VALID,1010.72,VALID,0,VALID,104,VALID,0,VALID,23.1874,VALID,352,VALID,0,
2014-01-11, 01:06:04,VALID,1010.73,VALID,0,VALID,104,VALID,0,VALID,23.1874,VALID,352,VALID,0.282422,
2014-01-11, 01:07:04,VALID,1010.73,VALID,0,VALID,104,VALID,0,VALID,23.1662,VALID,352,VALID,0.592969,
2014-01-11, 01:08:05,VALID,1010.74,VALID,0,VALID,104,VALID,0,VALID,23.1679,VALID,353,VALID,0.479688,
2014-01-11, 01:09:04,VALID,1010.72,VALID,0,VALID,104,VALID,0,VALID,23.1679,VALID,353,VALID,0.0277344,
2014-01-11, 01:10:05,VALID,1010.73,VALID,0,VALID,104,VALID,0,VALID,23.1679,VALID,353,VALID,0.0351563,
2014-01-11, 01:11:05,VALID,1010.73,VALID,0,VALID,104,VALID,0,VALID,23.1679,VALID,353,VALID,0.316797,
2014-01-11, 01:12:05,VALID,1010.71,VALID,0,VALID,104,VALID,0,VALID,23.1485,VALID,353,VALID,0.455078,
2014-01-11, 01:13:05,VALID,1010.73,VALID,0,VALID,104,VALID,0,VALID,23.1679,VALID,353,VALID,0.386719,
2014-01-11, 01:14:05,VALID,1010.71,VALID,0,VALID,104,VALID,0,VALID,23.129,VALID,353,VALID,0.596875,
2014-01-11, 01:15:05,VALID,1010.71,VALID,0,VALID,104,VALID,0,VALID,23.129,VALID,353,VALID,0.330859,
2014-01-11, 01:16:05,VALID,1010.71,VALID,0,VALID,104,VALID,0,VALID,23.129,VALID,353,VALID,0.00585938,
2014-01-11, 01:17:05,VALID,1010.72,VALID,0,VALID,104,VALID,0,VALID,23.129,VALID,353,VALID,0.0835937,
2014-01-11, 01:18:05,VALID,1010.7,VALID,0,VALID,104,VALID,0,VALID,23.129,VALID,353,VALID,0.430078,
2014-01-11, 01:19:05,VALID,1010.68,VALID,0,VALID,104,VALID,0,VALID,23.129,VALID,15,VALID,0.710938,
2014-01-11, 01:20:05,VALID,1010.7,VALID,0,VALID,104,VALID,0,VALID,23.129,VALID,16,VALID,0.428125,
2014-01-11, 01:21:05,VALID,1010.7,VALID,0,VALID,104,VALID,0,VALID,23.1095,VALID,9,VALID,0.366016,
2014-01-11, 01:22:05,VALID,1010.7,VALID,0,VALID,104,VALID,0,VALID,23.1095,VALID,334,VALID,0.688281,
2014-01-11, 01:23:05,VALID,1010.67,VALID,0,VALID,104,VALID,0,VALID,23.129,VALID,337,VALID,0.448047,
2014-01-11, 01:24:05,VALID,1010.68,VALID,0,VALID,104,VALID,0,VALID,23.1095,VALID,23,VALID,0.289453,
2014-01-11, 01:25:05,VALID,1010.66,VALID,0,VALID,104,VALID,0,VALID,23.129,VALID,23,VALID,0.308594,
2014-01-11, 01:26:05,VALID,1010.66,VALID,0,VALID,104,VALID,0,VALID,23.1095,VALID,23,VALID,0.398047,
2014-01-11, 01:27:05,VALID,1010.65,VALID,0,VALID,104,VALID,0,VALID,23.129,VALID,23,VALID,0.687891,
2014-01-11, 01:28:05,VALID,1010.67,VALID,0,VALID,104,VALID,0,VALID,23.1095,VALID,23,VALID,0,
2014-01-11, 01:29:05,VALID,1010.68,VALID,0,VALID,104,VALID,0,VALID,23.1095,VALID,23,VALID,0,
2014-01-11, 01:30:05,VALID,1010.67,VALID,0,VALID,104,VALID,0,VALID,23.129,VALID,339,VALID,0.595312,
2014-01-11, 01:31:05,VALID,1010.68,VALID,0,VALID,104,VALID,0,VALID,23.1502,VALID,340,VALID,0.4875,
2014-01-11, 01:32:05,VALID,1010.66,VALID,0,VALID,104,VALID,0,VALID,23.1095,VALID,340,VALID,0.0558594,
2014-01-11, 01:33:05,VALID,1010.66,VALID,0,VALID,104,VALID,0,VALID,23.1077,VALID,340,VALID,0.398438,
2014-01-11, 01:34:05,VALID,1010.66,VALID,0,VALID,104,VALID,0,VALID,23.1077,VALID,32,VALID,0.557422,
2014-01-11, 01:35:05,VALID,1010.67,VALID,0,VALID,104,VALID,0,VALID,23.1095,VALID,32,VALID,0.0195313,
2014-01-11, 01:36:05,VALID,1010.64,VALID,0,VALID,104,VALID,0,VALID,23.1095,VALID,32,VALID,0.0945313,
2014-01-11, 01:37:05,VALID,1010.65,VALID,0,VALID,104,VALID,0,VALID,23.129,VALID,32,VALID,0,
2014-01-11, 01:38:05,VALID,1010.65,VALID,0,VALID,104,VALID,0,VALID,23.129,VALID,32,VALID,0.515234,
2014-01-11, 01:39:05,VALID,1010.64,VALID,0,VALID,104,VALID,0.112112,VALID,23.1077,VALID,32,VALID,0,
2014-01-11, 01:40:05,VALID,1010.62,VALID,0,VALID,104,VALID,0,VALID,23.1095,VALID,32,VALID,0,
2014-01-11, 01:41:05,VALID,1010.58,VALID,0,VALID,104,VALID,0,VALID,23.1502,VALID,32,VALID,0.278516,
2014-01-11, 01:42:05,VALID,1010.56,VALID,0,VALID,104,VALID,0,VALID,23.0883,VALID,32,VALID,0.4,
2014-01-11, 01:43:05,VALID,1010.56,VALID,0,VALID,104,VALID,0,VALID,23.0883,VALID,32,VALID,0.217578,
2014-01-11, 01:44:05,VALID,1010.56,VALID,0,VALID,104,VALID,0,VALID,23.1095,VALID,28,VALID,0.788281,
2014-01-11, 01:45:05,VALID,1010.55,VALID,0,VALID,104,VALID,0,VALID,23.129,VALID,1,VALID,0.321484,
2014-01-11, 01:46:05,VALID,1010.54,VALID,0,VALID,104,VALID,0,VALID,23.129,VALID,1,VALID,0.195313,
2014-01-11, 01:47:05,VALID,1010.55,VALID,0,VALID,104,VALID,0,VALID,23.0883,VALID,1,VALID,0.250391,
2014-01-11, 01:48:05,VALID,1010.55,VALID,0,VALID,104,VALID,0,VALID,23.1095,VALID,1,VALID,0.427734,
2014-01-11, 01:49:05,VALID,1010.55,VALID,0,VALID,104,VALID,0,VALID,23.1095,VALID,360,VALID,0.822656,
2014-01-11, 01:50:05,VALID,1010.52,VALID,0,VALID,104,VALID,0,VALID,23.1095,VALID,360,VALID,0.180078,
2014-01-11, 01:51:05,VALID,1010.5,VALID,0,VALID,104,VALID,0,VALID,23.1095,VALID,360,VALID,0.55625,
2014-01-11, 01:52:05,VALID,1010.49,VALID,0,VALID,104,VALID,0,VALID,23.1095,VALID,360,VALID,0.230078,
2014-01-11, 01:53:05,VALID,1010.47,VALID,0,VALID,104,VALID,0.112112,VALID,23.1095,VALID,1,VALID,0.207813,
2014-01-11, 01:54:05,VALID,1010.45,VALID,0,VALID,104,VALID,0,VALID,23.129,VALID,1,VALID,0.185547,
2014-01-11, 01:55:05,VALID,1010.46,VALID,0,VALID,104,VALID,0,VALID,23.1095,VALID,360,VALID,0.546875,
2014-01-11, 01:56:05,VALID,1010.45,VALID,0,VALID,104,VALID,0,VALID,23.1095,VALID,52,VALID,0.706641,
2014-01-11, 01:57:05,VALID,1010.44,VALID,0,VALID,104,VALID,0,VALID,23.129,VALID,49,VALID,0.708594,
2014-01-11, 01:58:05,VALID,1010.4,VALID,0,VALID,104,VALID,0,VALID,23.0883,VALID,53,VALID,1.11211,
2014-01-11, 01:59:05,VALID,1010.39,VALID,0,VALID,104,VALID,0.112112,VALID,23.1077,VALID,50,VALID,0.450781,
2014-01-11, 02:00:05,VALID,1010.39,VALID,0,VALID,104,VALID,0,VALID,23.129,VALID,50,VALID,0.292969,
2014-01-11, 02:01:05,VALID,1010.36,VALID,0,VALID,104,VALID,0,VALID,23.1077,VALID,56,VALID,0.515234,
2014-01-11, 02:02:05,VALID,1010.36,VALID,0,VALID,104,VALID,0,VALID,23.129,VALID,64,VALID,0.575,
2014-01-11, 02:03:05,VALID,1010.34,VALID,0,VALID,104,VALID,0,VALID,23.129,VALID,55,VALID,1.00391,
2014-01-11, 02:04:05,VALID,1010.31,VALID,0,VALID,104,VALID,0,VALID,23.129,VALID,70,VALID,0.301562,
2014-01-11, 02:05:05,VALID,1010.33,VALID,0,VALID,104,VALID,0.112112,VALID,23.129,VALID,41,VALID,0.535156,
2014-01-11, 02:06:05,VALID,1010.34,VALID,0,VALID,104,VALID,0.112112,VALID,23.129,VALID,44,VALID,0.894531,
2014-01-11, 02:07:05,VALID,1010.3,VALID,0,VALID,104,VALID,0,VALID,23.1095,VALID,35,VALID,1.01172,
2014-01-11, 02:08:05,VALID,1010.27,VALID,0,VALID,104,VALID,0.112112,VALID,23.1077,VALID,62,VALID,1.11563,
2014-01-11, 02:09:05,VALID,1010.27,VALID,0,VALID,104,VALID,0,VALID,23.129,VALID,41,VALID,0.682031,
2014-01-11, 02:10:05,VALID,1010.28,VALID,0,VALID,104,VALID,0,VALID,23.129,VALID,41,VALID,0.407813,
2014-01-11, 02:11:05,VALID,1010.24,VALID,0,VALID,104,VALID,0,VALID,23.129,VALID,45,VALID,0.473047,
2014-01-11, 02:12:05,VALID,1010.22,VALID,0,VALID,104,VALID,0,VALID,23.129,VALID,47,VALID,0.864844,
2014-01-11, 02:13:05,VALID,1010.2,VALID,0,VALID,104,VALID,0,VALID,23.1077,VALID,47,VALID,0.737891,
2014-01-11, 02:14:05,VALID,1010.21,VALID,0,VALID,104,VALID,0,VALID,23.1077,VALID,47,VALID,0.763672,
2014-01-11, 02:15:05,VALID,1010.23,VALID,0,VALID,104,VALID,0,VALID,23.129,VALID,27,VALID,1.0543,
2014-01-11, 02:16:05,VALID,1010.23,VALID,0,VALID,104,VALID,0.112112,VALID,23.129,VALID,23,VALID,0.591016,
2014-01-11, 02:17:05,VALID,1010.22,VALID,0,VALID,104,VALID,0.112112,VALID,23.1077,VALID,34,VALID,0.613672,
2014-01-11, 02:18:05,VALID,1010.26,VALID,0,VALID,104,VALID,0,VALID,23.1095,VALID,40,VALID,1.00586,
2014-01-11, 02:19:05,VALID,1010.24,VALID,0,VALID,104,VALID,0.112112,VALID,23.1095,VALID,25,VALID,0.939062,
2014-01-11, 02:20:05,VALID,1010.22,VALID,0,VALID,104,VALID,0,VALID,23.129,VALID,37,VALID,0.676172,
2014-01-11, 02:21:05,VALID,1010.23,VALID,0,VALID,104,VALID,0,VALID,23.09,VALID,62,VALID,1.95625,
2014-01-11, 02:22:05,VALID,1010.2,VALID,0,VALID,104,VALID,0,VALID,23.1095,VALID,47,VALID,0.833984,
2014-01-11, 02:23:05,VALID,1010.23,VALID,0,VALID,104,VALID,0,VALID,23.1095,VALID,62,VALID,0.891797,
2014-01-11, 02:24:05,VALID,1010.2,VALID,0,VALID,104,VALID,0,VALID,23.1095,VALID,32,VALID,0.957812,
2014-01-11, 02:25:05,VALID,1010.18,VALID,0,VALID,104,VALID,0,VALID,23.1095,VALID,50,VALID,1.34414,
2014-01-11, 02:26:05,VALID,1010.19,VALID,0,VALID,104,VALID,0,VALID,23.1095,VALID,52,VALID,0.76875,
2014-01-11, 02:27:05,VALID,1010.17,VALID,0,VALID,104,VALID,0,VALID,23.1095,VALID,52,VALID,0.610937,
2014-01-11, 02:28:05,VALID,1010.19,VALID,0,VALID,104,VALID,0,VALID,23.1095,VALID,52,VALID,0.314453,
2014-01-11, 02:29:05,VALID,1010.21,VALID,0,VALID,104,VALID,0.112112,VALID,23.1095,VALID,52,VALID,0.440234,
2014-01-11, 02:30:05,VALID,1010.21,VALID,0,VALID,104,VALID,0,VALID,23.1095,VALID,52,VALID,0.1125,
2014-01-11, 02:31:05,VALID,1010.23,VALID,0,VALID,104,VALID,0,VALID,23.1095,VALID,52,VALID,0,
2014-01-11, 02:32:05,VALID,1010.22,VALID,0,VALID,104,VALID,0,VALID,23.1095,VALID,52,VALID,0.415625,
2014-01-11, 02:33:05,VALID,1010.21,VALID,0,VALID,104,VALID,0.112112,VALID,23.1077,VALID,19,VALID,0.239844,
2014-01-11, 02:34:05,VALID,1010.2,VALID,0,VALID,104,VALID,0,VALID,23.1112,VALID,19,VALID,0.00117188,
2014-01-11, 02:35:05,VALID,1010.19,VALID,0,VALID,104,VALID,0,VALID,23.09,VALID,19,VALID,0.290234,
2014-01-11, 02:36:05,VALID,1010.18,VALID,0,VALID,104,VALID,0,VALID,23.09,VALID,52,VALID,1.17539,
2014-01-11, 02:37:05,VALID,1010.18,VALID,0,VALID,104,VALID,0,VALID,23.09,VALID,51,VALID,0.300391,
2014-01-11, 02:38:05,VALID,1010.18,VALID,0,VALID,104,VALID,0,VALID,23.1112,VALID,52,VALID,0.166797,
2014-01-11, 02:39:05,VALID,1010.15,VALID,0,VALID,104,VALID,0,VALID,23.0705,VALID,42,VALID,0.713281,
2014-01-11, 02:40:05,VALID,1010.17,VALID,0,VALID,104,VALID,0,VALID,23.09,VALID,42,VALID,0.01875,
2014-01-11, 02:41:05,VALID,1010.16,VALID,0,VALID,104,VALID,0,VALID,23.09,VALID,42,VALID,0.461328,
2014-01-11, 02:42:05,VALID,1010.13,VALID,0,VALID,104,VALID,0,VALID,23.0705,VALID,33,VALID,0.913672,
2014-01-11, 02:43:05,VALID,1010.15,VALID,0,VALID,104,VALID,0,VALID,23.0705,VALID,30,VALID,0.217969,
2014-01-11, 02:44:05,VALID,1010.12,VALID,0,VALID,104,VALID,0,VALID,23.0705,VALID,30,VALID,0,
2014-01-11, 02:45:05,VALID,1010.1,VALID,0,VALID,104,VALID,0,VALID,23.09,VALID,30,VALID,0.431641,
2014-01-11, 02:46:05,VALID,1010.06,VALID,0,VALID,104,VALID,0,VALID,23.0493,VALID,30,VALID,0.669531,
2014-01-11, 02:47:05,VALID,1010.05,VALID,0,VALID,104,VALID,0,VALID,23.0918,VALID,30,VALID,0.028125,
2014-01-11, 02:48:05,VALID,1010.05,VALID,0,VALID,104,VALID,0,VALID,23.0705,VALID,42,VALID,0.71875,
2014-01-11, 02:49:05,VALID,1010.03,VALID,0,VALID,104,VALID,0,VALID,23.0705,VALID,60,VALID,0.866797,
2014-01-11, 02:50:05,VALID,1009.99,VALID,0,VALID,104,VALID,0,VALID,23.0705,VALID,58,VALID,0.0105469,
2014-01-11, 02:51:05,VALID,1010,VALID,0,VALID,104,VALID,0,VALID,23.0511,VALID,53,VALID,0.442187,
2014-01-11, 02:52:05,VALID,1009.98,VALID,0,VALID,104,VALID,0,VALID,23.0511,VALID,50,VALID,0.422656,
2014-01-11, 02:53:05,VALID,1009.97,VALID,0,VALID,104,VALID,0,VALID,23.0511,VALID,40,VALID,0.450781,
2014-01-11, 02:54:05,VALID,1009.95,VALID,0,VALID,104,VALID,0,VALID,23.0298,VALID,40,VALID,0.393359,
2014-01-11, 02:55:05,VALID,1009.96,VALID,0,VALID,104,VALID,0,VALID,23.0723,VALID,51,VALID,0.391406,
2014-01-11, 02:56:05,VALID,1009.93,VALID,0,VALID,104,VALID,0,VALID,23.0511,VALID,51,VALID,0.6875,
2014-01-11, 02:57:05,VALID,1009.91,VALID,0,VALID,104,VALID,0,VALID,23.0511,VALID,49,VALID,0.278516,
2014-01-11, 02:58:05,VALID,1009.91,VALID,0,VALID,104,VALID,0,VALID,23.0723,VALID,49,VALID,0.2,
2014-01-11, 02:59:05,VALID,1009.91,VALID,0,VALID,104,VALID,0,VALID,23.0528,VALID,49,VALID,0.452734,
2014-01-11, 03:00:05,VALID,1009.89,VALID,0,VALID,104,VALID,0,VALID,23.0316,VALID,49,VALID,0.728516,
2014-01-11, 03:01:05,VALID,1009.89,VALID,0,VALID,104,VALID,0,VALID,23.0333,VALID,49,VALID,0.449219,
2014-01-11, 03:02:05,VALID,1009.86,VALID,0,VALID,104,VALID,0,VALID,23.0121,VALID,49,VALID,0.426562,
2014-01-11, 03:03:05,VALID,1009.84,VALID,0,VALID,104,VALID,0,VALID,23.0121,VALID,49,VALID,0.3625,
2014-01-11, 03:04:05,VALID,1009.84,VALID,0,VALID,104,VALID,0,VALID,23.0121,VALID,49,VALID,0.338281,
2014-01-11, 03:05:05,VALID,1009.84,VALID,0,VALID,104,VALID,0,VALID,23.0121,VALID,50,VALID,0.766406,
2014-01-11, 03:06:05,VALID,1009.85,VALID,0,VALID,104,VALID,0,VALID,23.0333,VALID,48,VALID,0.580078,
2014-01-11, 03:07:05,VALID,1009.86,VALID,0,VALID,104,VALID,0,VALID,23.0333,VALID,45,VALID,0.740625,
2014-01-11, 03:08:05,VALID,1009.84,VALID,0,VALID,104,VALID,0,VALID,22.9926,VALID,45,VALID,0.0761719,
2014-01-11, 03:09:05,VALID,1009.83,VALID,0,VALID,104,VALID,0,VALID,22.9731,VALID,46,VALID,0,
2014-01-11, 03:10:05,VALID,1009.84,VALID,0,VALID,104,VALID,0,VALID,22.9731,VALID,45,VALID,0.727344,
2014-01-11, 03:11:05,VALID,1009.83,VALID,0,VALID,104,VALID,0,VALID,22.9731,VALID,44,VALID,0.148438,
2014-01-11, 03:12:05,VALID,1009.84,VALID,0,VALID,104,VALID,0,VALID,22.9731,VALID,44,VALID,0,
2014-01-11, 03:13:05,VALID,1009.86,VALID,0,VALID,104,VALID,0,VALID,22.9731,VALID,44,VALID,0.156641,
2014-01-11, 03:14:05,VALID,1009.86,VALID,0,VALID,104,VALID,0,VALID,22.9536,VALID,44,VALID,0.00585938,
2014-01-11, 03:15:05,VALID,1009.87,VALID,0,VALID,104,VALID,0,VALID,22.9536,VALID,44,VALID,0.133984,
2014-01-11, 03:16:05,VALID,1009.88,VALID,0,VALID,104,VALID,0,VALID,22.9342,VALID,44,VALID,0.0917969,
2014-01-11, 03:17:05,VALID,1009.86,VALID,0,VALID,104,VALID,0,VALID,22.9129,VALID,44,VALID,0.196875,
2014-01-11, 03:18:05,VALID,1009.87,VALID,0,VALID,104,VALID,0,VALID,22.9147,VALID,44,VALID,0,
2014-01-11, 03:19:05,VALID,1009.85,VALID,0,VALID,104,VALID,0,VALID,22.9147,VALID,44,VALID,0,
2014-01-11, 03:20:05,VALID,1009.88,VALID,0,VALID,104,VALID,0,VALID,22.8952,VALID,44,VALID,0,
2014-01-11, 03:21:05,VALID,1009.89,VALID,0,VALID,104,VALID,0,VALID,22.8952,VALID,44,VALID,0.839453,
2014-01-11, 03:22:05,VALID,1009.86,VALID,0,VALID,104,VALID,0,VALID,22.8952,VALID,44,VALID,0.998438,
2014-01-11, 03:23:05,VALID,1009.87,VALID,0,VALID,104,VALID,0,VALID,22.8952,VALID,45,VALID,0.275391,
2014-01-11, 03:24:05,VALID,1009.87,VALID,0,VALID,104,VALID,0,VALID,22.8952,VALID,46,VALID,0.250391,
2014-01-11, 03:25:05,VALID,1009.84,VALID,0,VALID,104,VALID,0,VALID,22.9147,VALID,45,VALID,0.947266,
2014-01-11, 03:26:05,VALID,1009.86,VALID,0,VALID,104,VALID,0.112112,VALID,22.8952,VALID,45,VALID,0.485938,
2014-01-11, 03:27:05,VALID,1009.87,VALID,0,VALID,104,VALID,0,VALID,22.8757,VALID,44,VALID,0.502344,
2014-01-11, 03:28:05,VALID,1009.89,VALID,0,VALID,104,VALID,0,VALID,22.8757,VALID,45,VALID,0.437109,
2014-01-11, 03:29:05,VALID,1009.88,VALID,0,VALID,104,VALID,0,VALID,22.8545,VALID,44,VALID,0.471875,
2014-01-11, 03:30:05,VALID,1009.88,VALID,0,VALID,104,VALID,0,VALID,22.8757,VALID,46,VALID,0.697656,
2014-01-11, 03:31:05,VALID,1009.88,VALID,0,VALID,104,VALID,0,VALID,22.8562,VALID,55,VALID,0.0636719,
2014-01-11, 03:32:05,VALID,1009.89,VALID,0,VALID,104,VALID,0,VALID,22.8757,VALID,54,VALID,0.128125,
2014-01-11, 03:33:05,VALID,1009.92,VALID,0,VALID,104,VALID,0,VALID,22.8562,VALID,55,VALID,0.413281,
2014-01-11, 03:34:05,VALID,1009.91,VALID,0,VALID,104,VALID,0,VALID,22.8757,VALID,35,VALID,0.344531,
2014-01-11, 03:35:05,VALID,1009.88,VALID,0,VALID,104,VALID,0,VALID,22.8757,VALID,36,VALID,0,
2014-01-11, 03:36:05,VALID,1009.9,VALID,0,VALID,104,VALID,0,VALID,22.8757,VALID,37,VALID,0,
2014-01-11, 03:37:05,VALID,1009.88,VALID,0,VALID,104,VALID,0,VALID,22.8562,VALID,50,VALID,0,
2014-01-11, 03:38:05,VALID,1009.85,VALID,0,VALID,104,VALID,0,VALID,22.8562,VALID,46,VALID,0,
2014-01-11, 03:39:05,VALID,1009.88,VALID,0,VALID,104,VALID,0,VALID,22.8757,VALID,33,VALID,0,
2014-01-11, 03:40:05,VALID,1009.89,VALID,0,VALID,104,VALID,0,VALID,22.8562,VALID,32,VALID,0,
2014-01-11, 03:41:05,VALID,1009.91,VALID,0,VALID,104,VALID,0,VALID,22.8757,VALID,32,VALID,0,
2014-01-11, 03:42:05,VALID,1009.89,VALID,0,VALID,104,VALID,0,VALID,22.8562,VALID,32,VALID,0,
2014-01-11, 03:43:05,VALID,1009.91,VALID,0,VALID,104,VALID,0,VALID,22.8562,VALID,33,VALID,0,
2014-01-11, 03:44:05,VALID,1009.94,VALID,0,VALID,104,VALID,0,VALID,22.8562,VALID,32,VALID,0,
2014-01-11, 03:45:05,VALID,1009.96,VALID,0,VALID,104,VALID,0,VALID,22.8562,VALID,33,VALID,0,
2014-01-11, 03:46:05,VALID,1009.96,VALID,0,VALID,104,VALID,0,VALID,22.8562,VALID,32,VALID,0,
2014-01-11, 03:47:05,VALID,1009.94,VALID,0,VALID,104,VALID,0,VALID,22.8562,VALID,32,VALID,0,
2014-01-11, 03:48:05,VALID,1009.95,VALID,0,VALID,104,VALID,0,VALID,22.8775,VALID,33,VALID,0,
2014-01-11, 03:49:05,VALID,1009.95,VALID,0,VALID,104,VALID,0,VALID,22.8562,VALID,33,VALID,0,
2014-01-11, 03:50:05,VALID,1009.97,VALID,0,VALID,104,VALID,0,VALID,22.8562,VALID,32,VALID,0,
2014-01-11, 03:51:05,VALID,1009.96,VALID,0,VALID,104,VALID,0,VALID,22.8368,VALID,32,VALID,0,
2014-01-11, 03:52:04,VALID,1009.98,VALID,0,VALID,104,VALID,0,VALID,22.8562,VALID,33,VALID,0,
2014-01-11, 03:53:04,VALID,1009.99,VALID,0,VALID,104,VALID,0,VALID,22.8562,VALID,32,VALID,0,
2014-01-11, 03:54:04,VALID,1010.01,VALID,0,VALID,104,VALID,0,VALID,22.8562,VALID,33,VALID,0,
2014-01-11, 03:55:04,VALID,1010,VALID,0,VALID,104,VALID,0,VALID,22.8562,VALID,33,VALID,0,
2014-01-11, 03:56:04,VALID,1010.01,VALID,0,VALID,104,VALID,0,VALID,22.8562,VALID,32,VALID,0,
2014-01-11, 03:57:04,VALID,1010.03,VALID,0,VALID,104,VALID,0,VALID,22.8562,VALID,32,VALID,0,
2014-01-11, 03:58:04,VALID,1010.05,VALID,0,VALID,104,VALID,0,VALID,22.8562,VALID,32,VALID,0,